Juneau, WI

1:48 PM CST on November 21, 2017 (GMT -0600)
Dodge County

Weather History for KUNU - January, 2014

Change the Weather History Date:

Wednesday, January 1, 2014

  Actual Average Record
Temperature  
Mean Temperature 2 °F -  
Max Temperature 7 °F 27 °F 42 °F (2007)
Min Temperature -2 °F 15 °F -12 °F (1974)
Degree Days  
Heating Degree Days 62    
Moisture  
Dew Point -7 °F    
Average Humidity 61    
Maximum Humidity 65    
Minimum Humidity 57    
Precipitation  
Precipitation 0.00 in - - ()
Sea Level Pressure  
Sea Level Pressure 30.32 in    
Wind  
Wind Speed 10 mph (North)    
Max Wind Speed 15 mph    
Max Gust Speed 21 mph    
Visibility 10 miles    
Events      
Averages and records for this station are not official NWS values.
T = Trace of Precipitation, MM = Missing Value Source: NWS Daily Summary

Daily Weather History Graph

Daily Weather History Graph

Search for Another Location

Airport or City:

Trip Planner

Search our weather history database for the weather conditions in past years. The results will help you decide how hot, cold, wet, or windy it might be!

Date:

Astronomy

Jan. 01, 2014 Rise Set
Actual Time 7:27 AM CST 4:29 PM CST
Civil Twilight 6:55 AM CST 5:01 PM CST
Nautical Twilight 6:19 AM CST 5:37 PM CST
Astronomical Twilight 5:44 AM CST 6:12 PM CST
Moon 7:15 AM CST (1/1) 5:16 PM CST (1/1)
Length of Visible Light 10h 06m
Length of Day
9h 01m
New Moon, 0% of the Moon is Illuminated
Jan 1
New Moon
Jan 7
First Quarter
Jan 15
Full
Jan 23
Last Quarter
Jan 30
New

Hourly Weather History & Observations

Time (CST) Temp. Windchill Dew Point Humidity Pressure Visibility Wind Dir Wind Speed Gust Speed Precip Events Conditions
12:15 AM -2.2 °F -15.6 °F -13.0 °F 60% 30.33 in 10.0 mi NNE 6.9 mph - N/A   Overcast
12:35 AM -2.2 °F -15.6 °F -13.2 °F 60% 30.33 in 10.0 mi North 6.9 mph - N/A   Overcast
12:55 AM -2.4 °F -15.8 °F -13.4 °F 60% 30.33 in 10.0 mi North 6.9 mph - N/A   Overcast
1:15 AM -2.2 °F -14.2 °F -13.0 °F 60% 30.32 in 10.0 mi NNE 5.8 mph - N/A   Overcast
1:35 AM -2.2 °F -15.6 °F -13.0 °F 60% 30.32 in 10.0 mi NNE 6.9 mph - N/A   Overcast
1:55 AM -2.2 °F -14.2 °F -13.2 °F 60% 30.32 in 10.0 mi NNE 5.8 mph - N/A   Overcast
2:15 AM -2.2 °F -15.6 °F -13.0 °F 60% 30.32 in 10.0 mi NNE 6.9 mph - N/A   Overcast
2:35 AM -2.2 °F -15.6 °F -13.0 °F 60% 30.32 in 10.0 mi NNE 6.9 mph - N/A   Overcast
2:55 AM -2.0 °F -15.4 °F -13.0 °F 60% 30.33 in 10.0 mi North 6.9 mph - N/A   Overcast
3:15 AM -1.7 °F -14.9 °F -13.0 °F 59% 30.34 in 10.0 mi North 6.9 mph - N/A   Overcast
3:35 AM -1.5 °F -14.7 °F -12.1 °F 61% 30.33 in 10.0 mi NNE 6.9 mph - N/A   Overcast
3:55 AM -1.5 °F -16.0 °F -13.2 °F 58% 30.33 in 10.0 mi North 8.1 mph - N/A   Overcast
4:15 AM -1.5 °F -14.7 °F -12.8 °F 59% 30.33 in 10.0 mi NNE 6.9 mph - N/A   Overcast
4:35 AM -1.3 °F -14.5 °F -12.3 °F 60% 30.34 in 10.0 mi NNE 6.9 mph - N/A   Overcast
4:55 AM -1.3 °F -14.5 °F -12.1 °F 60% 30.33 in 10.0 mi North 6.9 mph - N/A   Overcast
5:15 AM -1.3 °F -18.7 °F -11.7 °F 61% 30.32 in 10.0 mi North 11.5 mph - N/A   Overcast
5:35 AM -1.3 °F -15.7 °F -11.4 °F 62% 30.33 in 10.0 mi North 8.1 mph - N/A   Overcast
5:55 AM -1.3 °F -16.8 °F -11.2 °F 63% 30.33 in 10.0 mi North 9.2 mph - N/A   Overcast
6:15 AM -0.9 °F -16.4 °F -10.7 °F 63% 30.32 in 10.0 mi North 9.2 mph - N/A   Overcast
6:35 AM -0.8 °F -16.2 °F -10.3 °F 64% 30.33 in 10.0 mi North 9.2 mph - N/A   Overcast
6:55 AM -0.8 °F -13.9 °F -10.3 °F 64% 30.33 in 10.0 mi North 6.9 mph - N/A   Mostly Cloudy
7:15 AM -0.4 °F -15.7 °F -10.3 °F 63% 30.33 in 10.0 mi North 9.2 mph - N/A   Mostly Cloudy
7:35 AM -0.4 °F -16.7 °F -9.8 °F 65% 30.34 in 10.0 mi North 10.4 mph - N/A   Overcast
7:55 AM -0.4 °F -16.7 °F -9.8 °F 65% 30.34 in 10.0 mi North 10.4 mph - N/A   Overcast
8:15 AM -0.4 °F -16.7 °F -9.9 °F 64% 30.35 in 10.0 mi North 10.4 mph - N/A   Overcast
8:35 AM -0.0 °F -18.0 °F -9.9 °F 63% 30.35 in 10.0 mi North 12.7 mph 16.1 mph N/A   Overcast
8:55 AM 0.1 °F -19.2 °F -9.8 °F 63% 30.35 in 10.0 mi North 15.0 mph - N/A   Mostly Cloudy
9:15 AM 0.7 °F -17.0 °F -9.6 °F 62% 30.35 in 10.0 mi North 12.7 mph - N/A   Clear
9:35 AM 1.8 °F -16.4 °F -9.4 °F 60% 30.35 in 10.0 mi North 13.8 mph - N/A   Mostly Cloudy
9:55 AM 2.3 °F -15.7 °F -9.0 °F 59% 30.35 in 10.0 mi North 13.8 mph - N/A   Overcast
10:15 AM 3.6 °F -13.4 °F -8.3 °F 58% 30.35 in 10.0 mi North 12.7 mph - N/A   Overcast
10:35 AM 3.7 °F -11.6 °F -7.8 °F 59% 30.35 in 10.0 mi North 10.4 mph 19.6 mph N/A   Overcast
10:55 AM 4.1 °F -13.4 °F -7.6 °F 58% 30.34 in 10.0 mi North 13.8 mph - N/A   Overcast
11:15 AM 4.6 °F -12.8 °F -7.6 °F 57% 30.34 in 10.0 mi North 13.8 mph - N/A   Overcast
11:35 AM 5.2 °F -11.4 °F -6.2 °F 60% 30.32 in 10.0 mi North 12.7 mph - N/A   Overcast
11:55 AM 5.4 °F -11.1 °F -5.8 °F 60% 30.32 in 10.0 mi North 12.7 mph - N/A   Scattered Clouds
12:15 PM 6.4 °F -9.0 °F -4.7 °F 60% 30.32 in 10.0 mi North 11.5 mph 17.3 mph N/A   Clear
12:35 PM 6.6 °F -9.5 °F -4.4 °F 61% 30.31 in 10.0 mi North 12.7 mph - N/A   Scattered Clouds
12:55 PM 5.9 °F -11.2 °F -4.9 °F 61% 30.31 in 10.0 mi North 13.8 mph - N/A   Scattered Clouds
1:15 PM 6.8 °F -10.0 °F -3.6 °F 62% 30.30 in 10.0 mi North 13.8 mph 18.4 mph N/A   Scattered Clouds
1:35 PM 6.6 °F -8.8 °F -4.0 °F 62% 30.30 in 10.0 mi North 11.5 mph - N/A   Mostly Cloudy
1:55 PM 6.6 °F -8.8 °F -3.6 °F 63% 30.29 in 10.0 mi North 11.5 mph - N/A   Mostly Cloudy
2:15 PM 6.6 °F -8.8 °F -3.5 °F 63% 30.29 in 10.0 mi North 11.5 mph 17.3 mph N/A   Overcast
2:35 PM 6.6 °F -8.0 °F -3.3 °F 64% 30.29 in 10.0 mi North 10.4 mph - N/A   Overcast
2:55 PM 6.6 °F -8.8 °F -3.3 °F 64% 30.29 in 10.0 mi North 11.5 mph - N/A   Overcast
3:15 PM 6.8 °F -9.3 °F -3.1 °F 64% 30.29 in 10.0 mi North 12.7 mph - N/A   Overcast
3:35 PM 6.6 °F -10.9 °F -3.5 °F 63% 30.30 in 10.0 mi North 15.0 mph 18.4 mph N/A   Overcast
3:55 PM 6.1 °F -10.9 °F -3.8 °F 64% 30.30 in 10.0 mi North 13.8 mph - N/A   Overcast
4:15 PM 5.9 °F -11.2 °F -4.2 °F 63% 30.31 in 10.0 mi North 13.8 mph - N/A   Overcast
4:35 PM 5.9 °F -10.5 °F -4.5 °F 62% 30.30 in 10.0 mi North 12.7 mph - N/A   Overcast
4:55 PM 6.3 °F -10.0 °F -4.2 °F 62% 30.31 in 10.0 mi North 12.7 mph - N/A   Overcast
5:15 PM 6.3 °F -10.0 °F -4.0 °F 63% 30.30 in 10.0 mi North 12.7 mph - N/A   Overcast
5:35 PM 6.3 °F -10.7 °F -4.0 °F 63% 30.30 in 10.0 mi North 13.8 mph - N/A   Overcast
5:55 PM 6.4 °F -9.0 °F -4.0 °F 62% 30.31 in 10.0 mi North 11.5 mph - N/A   Overcast
6:15 PM 6.6 °F -10.2 °F -4.0 °F 62% 30.31 in 10.0 mi North 13.8 mph - N/A   Overcast
6:35 PM 6.6 °F -10.2 °F -4.0 °F 62% 30.31 in 10.0 mi North 13.8 mph - N/A   Overcast
6:55 PM 6.8 °F -10.7 °F -4.0 °F 61% 30.31 in 10.0 mi North 15.0 mph - N/A   Overcast
7:15 PM 6.8 °F -10.0 °F -4.0 °F 61% 30.32 in 10.0 mi North 13.8 mph - N/A   Overcast
7:35 PM 6.8 °F -10.7 °F -4.2 °F 61% 30.32 in 10.0 mi North 15.0 mph - N/A   Overcast
7:55 PM 6.8 °F -10.7 °F -4.4 °F 60% 30.31 in 10.0 mi North 15.0 mph 20.7 mph N/A   Overcast
8:15 PM 6.8 °F -10.0 °F -4.4 °F 60% 30.30 in 10.0 mi North 13.8 mph - N/A   Overcast
8:35 PM 6.8 °F -10.7 °F -4.4 °F 60% 30.31 in 10.0 mi North 15.0 mph - N/A   Overcast
8:55 PM 6.8 °F -10.0 °F -4.2 °F 61% 30.30 in 10.0 mi North 13.8 mph 20.7 mph N/A   Overcast
9:15 PM 6.8 °F -10.7 °F -4.2 °F 61% 30.29 in 10.0 mi North 15.0 mph 19.6 mph N/A   Overcast
9:35 PM 6.8 °F -10.7 °F -4.0 °F 61% 30.28 in 10.0 mi North 15.0 mph - N/A   Overcast
9:55 PM 6.8 °F -10.7 °F -4.0 °F 61% 30.28 in 10.0 mi North 15.0 mph - N/A   Overcast
10:15 PM 7.2 °F -8.9 °F -3.8 °F 61% 30.29 in 10.0 mi North 12.7 mph - N/A   Overcast
10:35 PM 7.3 °F -10.0 °F -3.3 °F 62% 30.28 in 10.0 mi North 15.0 mph 18.4 mph N/A   Overcast
10:55 PM 7.5 °F -8.4 °F -3.1 °F 62% 30.28 in 10.0 mi North 12.7 mph - N/A   Overcast
11:15 PM 7.5 °F -8.4 °F -2.9 °F 62% 30.28 in 10.0 mi North 12.7 mph 18.4 mph N/A   Overcast
11:35 PM 7.7 °F -8.2 °F -2.6 °F 63% 30.28 in 10.0 mi North 12.7 mph - N/A   Overcast
11:55 PM 7.7 °F -8.9 °F -2.2 °F 64% 30.27 in 10.0 mi North 13.8 mph - N/A   Overcast